User: anonymous   Login
Location: Unspecified
(0.0000°N, 0.0000°E)
Time: 01:25:23
(UTC+02:00)
Language:

ATLAS 3B CENTAUR R/B - Orbit

View from above orbital plane
View from above orbital plane
View from above satellite
View from above satellite

Ground track
Ground track

The orbit data is extracted from the following two-line orbital elements,

1 28118U 03057B   15245.43372565  .00080702  00000-0  14226-2 0  9991
2 28118  28.1338 288.6615 3534952 163.4255 212.0513  8.41414857231259
Epoch (UTC): 02 September 2015 10:24:33
Eccentricity: 0.3534952
inclination: 28.1338°
perigee height: 223 km
apogee height: 7442 km
right ascension of ascending node: 288.6615°
argument of perigee: 163.4255°
revolutions per day: 8.41414857
mean anomaly at epoch: 212.0513°
orbit number at epoch: 23125

The dashed part of the orbit path shows where the satellite is in the earth's shadow,  

DLR